Location: Hannover
(52.3723°N, 9.7339°E)
Time: 17:58:21
(UTC+02:00)

ISS - Pass Details

Date: 05 January 2018
Orbit: 401 x 409 km, 51.6° (Epoch: 19 August)

Event Time Altitude Azimuth Distance (km) Brightness Sun altitude
Exits shadow 06:10:37 77° 198° (SSW) 439 -3.8 -20.1°
Maximum altitude 06:10:43 78° 175° (S) 437 -3.8 -20.1°
Drops below altitude 10° 06:14:07 10° 89° (E) 1,517 0.2 -19.6°
Sets 06:16:14 0° 88° (E) 2,385 1.5 -19.2°
